TimeCST,TemperatureF,Dew PointF,Humidity,Sea Level PressureIn,VisibilityMPH,Wind Direction,Wind SpeedMPH,Gust SpeedMPH,PrecipitationIn,Events,Conditions,WindDirDegrees,DateUTC
12:25 AM,24.8,21.2,86,29.79,0.8,NW,33.4,42.6,N/A,Snow,Blowing Snow,320,2013-02-11 06:25:00
12:33 AM,24.8,21.2,86,29.79,1.0,NW,33.4,43.7,N/A,Snow,Blowing Snow,320,2013-02-11 06:33:00
12:41 AM,24.8,21.2,86,29.79,1.0,NNW,36.8,43.7,N/A,Snow,Blowing Snow,330,2013-02-11 06:41:00
12:55 AM,24.1,21.9,91,29.86,1.2,NW,33.4,-,N/A,Snow,Blowing Snow,320,2013-02-11 06:55:00
1:55 AM,23.0,21.0,92,29.89,3.0,NNW,28.8,39.1,N/A,Snow,Blowing Snow,330,2013-02-11 07:55:00
2:07 AM,23.0,21.2,93,29.85,2.5,NNW,32.2,36.8,0.01,Snow,Blowing Snow,330,2013-02-11 08:07:00
2:28 AM,23.0,19.4,86,29.85,3.0,NW,25.3,35.7,0.01,Snow,Blowing Snow,320,2013-02-11 08:28:00
2:55 AM,21.9,19.9,92,29.92,5.0,NW,27.6,35.7,0.02,Snow,Blowing Snow,320,2013-02-11 08:55:00
3:48 AM,21.2,19.4,93,29.88,2.5,NW,28.8,35.7,0.02,Snow,Blowing Snow,320,2013-02-11 09:48:00
3:55 AM,21.0,19.0,92,29.94,3.0,NW,27.6,34.5,0.02,Snow,Blowing Snow,320,2013-02-11 09:55:00
4:11 AM,21.2,17.6,86,29.89,4.0,NW,26.5,-,0.00,Snow,Light Snow,320,2013-02-11 10:11:00
4:55 AM,21.0,18.0,88,29.97,6.0,NW,25.3,-,0.00,,Overcast,310,2013-02-11 10:55:00
5:55 AM,21.9,19.0,89,29.99,5.0,NW,24.2,-,0.01,,Overcast,320,2013-02-11 11:55:00
6:55 AM,21.9,19.0,89,30.01,6.0,NW,23.0,-,0.03,,Overcast,320,2013-02-11 12:55:00
7:55 AM,21.2,19.4,93,29.99,7.0,NW,21.9,-,N/A,,Overcast,310,2013-02-11 13:55:00
8:55 AM,23.0,19.0,85,30.07,9.0,NNW,20.7,-,0.14,,Overcast,330,2013-02-11 14:55:00
9:55 AM,23.0,18.0,81,30.09,10.0,NNW,19.6,-,0.00,,Overcast,330,2013-02-11 15:55:00
10:55 AM,23.0,18.0,81,30.12,10.0,NW,17.3,-,N/A,,Overcast,320,2013-02-11 16:55:00
11:55 AM,23.0,19.0,85,30.14,10.0,NW,15.0,-,N/A,,Overcast,320,2013-02-11 17:55:00
12:07 PM,23.0,19.4,86,30.07,8.0,NW,16.1,-,N/A,,Overcast,320,2013-02-11 18:07:00
12:15 PM,23.0,19.4,86,30.07,8.0,NW,17.3,-,N/A,,Overcast,320,2013-02-11 18:15:00
12:55 PM,23.0,18.0,81,30.13,10.0,NNW,13.8,-,N/A,,Overcast,330,2013-02-11 18:55:00
1:55 PM,21.9,17.1,82,30.13,10.0,NNW,13.8,-,0.00,,Overcast,340,2013-02-11 19:55:00
2:55 PM,21.9,17.1,82,30.13,10.0,NNW,8.1,-,0.00,,Overcast,330,2013-02-11 20:55:00
3:55 PM,21.9,17.1,82,30.13,9.0,NNW,5.8,-,N/A,,Overcast,340,2013-02-11 21:55:00
4:55 PM,21.9,18.0,85,30.12,10.0,Calm,Calm,-,N/A,,Overcast,0,2013-02-11 22:55:00
5:55 PM,21.9,18.0,85,30.11,10.0,SSW,4.6,-,N/A,,Overcast,200,2013-02-11 23:55:00
6:55 PM,21.9,19.0,89,30.11,10.0,South,4.6,-,N/A,,Overcast,190,2013-02-12 00:55:00
7:55 PM,21.9,19.0,89,30.11,10.0,South,8.1,-,N/A,,Overcast,190,2013-02-12 01:55:00
8:23 PM,19.4,17.6,93,30.04,10.0,South,5.8,-,N/A,,Partly Cloudy,190,2013-02-12 02:23:00
8:55 PM,19.0,16.0,88,30.10,10.0,South,5.8,-,N/A,,Clear,190,2013-02-12 02:55:00
9:55 PM,18.0,15.1,88,30.09,10.0,SSW,6.9,-,N/A,,Clear,210,2013-02-12 03:55:00
10:55 PM,16.0,12.0,84,30.09,10.0,SSW,6.9,-,N/A,,Clear,200,2013-02-12 04:55:00
11:55 PM,15.1,12.0,88,30.08,10.0,South,6.9,-,N/A,,Clear,190,2013-02-12 05:55:00